This demonstration page uses our WeatherBlox Daily Observations layout. Learn more.

40.92945, -100.16068

Hourly Observations for November 19, 2019

Temp ( °F °C ) Dew Point ( °F °C ) Humidity (%) Winds ( mph kmh ) Pressure ( in mb ) Visibility ( mi km ) Precip ( " mm )
12:15 am 00:15 Clear 32 -0.1 25 -3.9 76 76 NW 3 6 30 1016 10 16.0934 0 0
12:35 am 00:35 Clear 31 -0.7 24 -4.3 77 77 WNW 6 9 30 1016 10 16.0934 0 0
12:55 am 00:55 Clear 29 -1.5 24 -4.6 80 80 WNW 8 13 30.02 1017 10 16.0934 0 0
1:15 am 01:15 Clear 31 -0.4 26 -3.6 79 79 WNW 8 13 30.01 1016 10 16.0934 0 0
1:35 am 01:35 Clear 30 -1 25 -3.9 81 81 WNW 7 11 30.02 1016 10 16.0934 0 0
1:55 am 01:55 Clear 29 -1.5 25 -4.1 83 83 NW 5 7 30.02 1017 10 16.0934 0 0
2:15 am 02:15 Clear 29 -1.9 23 -4.8 81 81 NNW 6 9 30.03 1017 10 16.0934 0 0
2:35 am 02:35 Clear 27 -2.7 23 -5.1 84 84 WNW 3 6 30.03 1017 10 16.0934 0 0
2:55 am 02:55 Clear 28 -2.3 24 -4.7 84 84 W 7 11 30.03 1017 10 16.0934 0 0
3:15 am 03:15 Clear 28 -2 24 -4.5 83 83 W 6 9 30.03 1017 10 16.0934 0 0
3:35 am 03:35 Clear 29 -1.7 24 -4.5 81 81 WNW 7 11 30.01 1016 10 16.0934 0 0
3:55 am 03:55 Clear 29 -1.8 24 -4.2 84 84 W 5 7 30.01 1016 10 16.0934 0 0
4:15 am 04:15 Clear 28 -2 24 -4.5 83 83 W 5 7 30.02 1016 10 16.0934 0 0
4:35 am 04:35 Clear 28 -2.5 24 -4.5 86 86 WNW 5 7 30.01 1016 10 16.0934 0 0
4:55 am 04:55 Clear 27 -2.9 24 -4.7 88 88 W 5 7 30.03 1017 10 16.0934 0 0
5:15 am 05:15 Clear 26 -3.1 23 -5 87 87 W 6 9 30.03 1017 10 16.0934 0 0
5:35 am 05:35 Clear 26 -3.3 23 -5 88 88 W 7 11 30.03 1017 10 16.0934 0 0
5:55 am 05:55 Clear 27 -2.6 24 -4.2 89 89 W 8 13 30.02 1017 10 16.0934 0 0
6:15 am 06:15 Clear 28 -2.5 24 -4.5 86 86 W 6 9 30.02 1017 10 16.0934 0 0
6:35 am 06:35 Clear 27 -3 24 -4.6 89 89 W 6 9 30.03 1017 10 16.0934 0 0
6:55 am 06:55 Clear 26 -3.6 23 -5 90 90 WNW 3 6 30.04 1017 10 16.0934 0 0
7:15 am 07:15 Clear 25 -3.7 23 -5.2 89 89 W 5 7 30.04 1017 10 16.0934 0 0
7:35 am 07:35 Sunny 25 -3.7 23 -5.1 90 90 WNW 3 6 30.04 1017 10 16.0934 0 0
7:55 am 07:55 Sunny 25 -3.7 23 -5.1 90 90 WNW 3 6 30.05 1018 10 16.0934 0 0
8:15 am 08:15 Sunny 27 -2.6 24 -4.3 88 88 WNW 3 6 30.04 1017 7 11.26538 0 0
8:35 am 08:35 Sunny 31 -0.6 27 -3 84 84 Calm 30.02 1017 10 16.0934 0 0
8:55 am 08:55 Sunny 33 0.8 28 -2.1 81 81 WNW 3 6 30.01 1016 10 16.0934 0 0
9:15 am 09:15 Sunny 36 2 29 -1.7 77 77 WNW 3 6 30 1016 10 16.0934 0 0
9:35 am 09:35 Sunny 38 3.2 30 -1 74 74 Calm 29.99 1015 10 16.0934 0 0
9:55 am 09:55 Sunny 40 4.6 31 -0.4 70 70 Calm 29.96 1015 10 16.0934 0 0
10:15 am 10:15 Sunny 45 7.1 33 0.6 64 64 Calm 29.94 1014 7 11.26538 0.05 1.27
10:35 am 10:35 Sunny 47 8.1 32 -0.1 57 57 Calm 29.93 1014 10 16.0934 0.05 1.27
10:55 am 10:55 Sunny 50 10 32 0.1 51 51 ESE 3 6 29.9 1013 10 16.0934 0.05 1.27
11:15 am 11:15 Sunny 52 11.3 32 0.2 47 47 ESE 7 11 29.89 1012 10 16.0934 0 0
11:35 am 11:35 Sunny 55 12.9 32 0.2 42 42 SE 6 9 29.86 1011 10 16.0934 0 0
11:55 am 11:55 Sunny 58 14.6 31 -0.3 36 36 S 9 15 29.84 1010 10 16.0934 0 0
12:15 pm 12:15 Sunny 59 15 31 -0.5 35 35 S 13 20 29.82 1010 10 16.0934 0 0
12:35 pm 12:35 Sunny 60 15.5 30 -0.9 33 33 S 13 20 29.8 1009 10 16.0934 0 0
12:55 pm 12:55 Sunny 60 15.7 30 -1 32 32 S 14 22 29.78 1008 10 16.0934 0 0
1:15 pm 13:15 Sunny 61 16 31 -0.6 32 32 SSE 15 24 29.77 1008 10 16.0934 0 0
1:35 pm 13:35 Sunny 60 15.3 31 -0.5 34 34 SSE 14 22 29.76 1008 10 16.0934 0 0
1:55 pm 13:55 Sunny 59 15.2 30 -0.9 33 33 SSE 16 26 29.75 1008 10 16.0934 0 0
2:15 pm 14:15 Sunny 60 15.3 31 -0.6 34 34 SSE 15 24 29.74 1007 10 16.0934 0 0
2:35 pm 14:35 Sunny 59 15 31 -0.4 35 35 SSE 15 24 29.75 1007 10 16.0934 0 0
2:55 pm 14:55 Sunny 59 15.2 32 0 36 36 SSE 12 19 29.74 1007 10 16.0934 0 0
3:15 pm 15:15 Sunny 60 15.8 32 0 34 34 SSE 10 17 29.73 1007 10 16.0934 0 0
3:35 pm 15:35 Sunny 61 16.1 32 0 34 34 SSE 15 24 29.73 1007 10 16.0934 0 0
3:55 pm 15:55 Sunny 60 15.4 31 -0.3 34 34 SSE 14 22 29.74 1007 10 16.0934 0 0
4:15 pm 16:15 Sunny 58 14.5 32 -0.1 37 37 SSE 10 17 29.74 1007 10 16.0934 0 0
4:35 pm 16:35 Sunny 58 14.6 32 0 37 37 SSE 13 20 29.74 1007 10 16.0934 0 0
4:55 pm 16:55 Sunny 57 14 32 0 39 39 SE 14 22 29.74 1007 10 16.0934 0 0
5:15 pm 17:15 Sunny 55 13 32 0 41 41 SE 12 19 29.74 1007 10 16.0934 0 0
5:35 pm 17:35 Clear 53 11.9 32 0 44 44 ESE 9 15 29.75 1008 10 16.0934 0 0
5:55 pm 17:55 Clear 52 11.2 32 0 46 46 SE 9 15 29.76 1008 10 16.0934 0 0
6:15 pm 18:15 Clear 51 10.6 32 0 48 48 SE 10 17 29.77 1008 10 16.0934 0 0
6:35 pm 18:35 Clear 50 10 32 0 50 50 SE 10 17 29.78 1009 10 16.0934 0 0
6:55 pm 18:55 Clear 49 9.5 32 0 52 52 SE 9 15 29.79 1009 10 16.0934 0 0
7:15 pm 19:15 Clear 48 8.9 32 0 54 54 SE 9 15 29.79 1009 10 16.0934 0 0
7:35 pm 19:35 Clear 47 8.5 32 0 55 55 SE 9 15 29.79 1009 10 16.0934 0 0
7:55 pm 19:55 Clear 47 8.3 32 0 56 56 SE 9 15 29.8 1009 10 16.0934 0 0
8:15 pm 20:15 Clear 46 7.7 32 -0.1 58 58 SE 9 15 29.81 1010 10 16.0934 0 0
8:35 pm 20:35 Clear 46 7.6 32 0 59 59 SE 10 17 29.81 1010 10 16.0934 0 0
8:55 pm 20:55 Clear 46 7.6 32 -0.1 59 59 SE 10 17 29.8 1009 10 16.0934 0 0
9:15 pm 21:15 Clear 46 7.8 32 -0.1 58 58 ESE 9 15 29.8 1009 10 16.0934 0 0
9:35 pm 21:35 Clear 46 7.7 32 -0.1 58 58 SE 10 17 29.8 1009 10 16.0934 0 0
9:55 pm 21:55 Clear 45 7.2 32 -0.1 60 60 ESE 9 15 29.81 1009 10 16.0934 0 0
10:15 pm 22:15 Clear 45 7 32 -0.2 61 61 ESE 8 13 29.81 1009 10 16.0934 0 0
10:35 pm 22:35 Clear 43 6.1 31 -0.3 64 64 E 7 11 29.81 1009 10 16.0934 0 0
10:55 pm 22:55 Clear 42 5.6 31 -0.3 66 66 E 7 11 29.8 1009 10 16.0934 0 0
11:15 pm 23:15 Clear 42 5.4 32 -0.2 68 68 ESE 8 13 29.8 1009 10 16.0934 0 0
11:35 pm 23:35 Clear 42 5.5 32 -0.2 67 67 ESE 8 13 29.79 1009 10 16.0934 0 0
11:55 pm 23:55 Clear 41 5.2 32 -0.2 68 68 ESE 7 11 29.8 1009 10 16.0934 0 0

Powered by AerisWeather